CW4489 Marathon FL US current weather conditions

sailwx.info

Wind from 333 at 1 knots gusting 2

Air temperature 29.4° C
Dewpoint 25.6° C

Last reported at 2014-Jul-29 05:50 UTC.
Time now 2014-Jul-29 06:47 UTC

Location: N 24°44' W 081°02'.
View on Google Maps.

See reports from other nearby stations

  
Tides and Currents Weather Stations Pressure Air Temp Water Temp Dewpoint Dewpoint Depression Visibility Wind Speed Wind Dir Waves Ship Positions
date/time (UTC)wind fromknots sea level pressurealtimeterstation pressurevisibilityair tempwater tempwave heightnotes
2014-Jul-29 05:50 333 1 gusting 2 29.4
2014-Jul-29 05:30 339 0 gusting 2 30.0
2014-Jul-29 05:20 339 30.0
2014-Jul-29 05:00 340 1 gusting 2 29.4
2014-Jul-29 04:50 340 29.4
2014-Jul-29 04:40 340 29.4
2014-Jul-29 04:30 340 29.4
2014-Jul-29 04:20 340 29.4
2014-Jul-29 04:10 340 29.4
2014-Jul-29 04:00 340 29.4
2014-Jul-29 03:50 340 29.4
2014-Jul-29 03:30 340 29.4
2014-Jul-29 03:20 340 29.4
2014-Jul-29 03:10 340 29.4
2014-Jul-29 03:00 340 30.0
2014-Jul-29 02:50 340 30.0
2014-Jul-29 02:20 340 30.0
2014-Jul-29 01:50 340 30.0
2014-Jul-29 00:50 340 0 gusting 2 30.6
2014-Jul-29 00:40 340 30.6
2014-Jul-29 00:30 340 0 gusting 2 30.6
2014-Jul-28 23:40 342 31.7
2014-Jul-28 22:40 290 0 gusting 2 32.2
2014-Jul-28 22:20 309 2 gusting 3 32.2
2014-Jul-28 21:50 036 1 gusting 4 32.8
2014-Jul-28 21:40 009 2 gusting 4 32.2
2014-Jul-28 21:30 320 32.2
2014-Jul-28 21:20 344 2 gusting 4 32.2
2014-Jul-28 21:09 316 1 gusting 4 32.2
2014-Jul-28 20:59 180 31.7
2014-Jul-28 20:29 180 1 gusting 2 31.1
2014-Jul-28 20:19 180 0 gusting 2 31.1
2014-Jul-28 19:49 180 0 gusting 2 31.7
2014-Jul-28 19:40 180 1 gusting 2 32.2
2014-Jul-28 19:20 185 0 gusting 2 31.1
2014-Jul-28 19:10 186 1 gusting 2 31.7
2014-Jul-28 19:00 155 1 gusting 2 30.6
2014-Jul-28 18:50 160 31.1
2014-Jul-28 18:39 142 31.1
2014-Jul-28 18:29 010 1 gusting 2 31.7
2014-Jul-28 18:10 348 1 gusting 5 31.7
2014-Jul-28 17:49 066 32.2
2014-Jul-28 17:29 350 3 gusting 6 31.7
2014-Jul-28 17:09 045 1 gusting 2 32.2
2014-Jul-28 16:59 044 2 gusting 2 32.8
2014-Jul-28 16:50 042 0 gusting 2 32.2
2014-Jul-28 16:09 042 31.1
2014-Jul-28 15:29 100 0 gusting 2 30.0
2014-Jul-28 15:09 026 29.4
2014-Jul-28 14:59 026 30.0
2014-Jul-28 14:49 012 0 gusting 1 30.0
2014-Jul-28 14:30 123 30.0
2014-Jul-28 13:49 024 30.0
2014-Jul-28 13:39 350 0 gusting 2 30.0
2014-Jul-28 13:19 032 1 gusting 1 30.6
2014-Jul-28 13:09 031 0 gusting 2 30.6
2014-Jul-28 12:59 032 30.6
2014-Jul-28 12:09 144 0 gusting 0 28.9
2014-Jul-28 11:59 144 28.9
2014-Jul-28 11:49 144 28.3
2014-Jul-28 11:39 144 28.3
2014-Jul-28 11:29 144 28.3
2014-Jul-28 10:29 144 28.3
2014-Jul-28 09:49 144 28.3
2014-Jul-28 09:39 144 0 gusting 0 28.3
2014-Jul-28 09:29 144 28.9
2014-Jul-28 09:19 144 28.3
2014-Jul-28 09:09 130 28.3
2014-Jul-28 08:49 154 0 gusting 0 28.9
2014-Jul-28 08:09 164 28.9
2014-Jul-28 07:59 136 28.9
2014-Jul-28 07:39 099 28.9
2014-Jul-28 07:29 129 1 gusting 4 28.9
2014-Jul-28 06:40 138 28.9
2014-Jul-28 06:20 148 28.9
2014-Jul-28 05:39 120 28.9
2014-Jul-28 05:29 135 28.9
2014-Jul-28 05:19 121 0 gusting 2 28.9
2014-Jul-28 05:09 138 2 gusting 3 28.9
2014-Jul-28 04:20 125 28.9
2014-Jul-28 04:09 113 28.9
2014-Jul-28 04:00 148 0 gusting 1 28.9
2014-Jul-28 03:09 148 28.9
2014-Jul-28 02:59 148 28.9
2014-Jul-28 02:49 148 0 gusting 0 28.9
2014-Jul-28 02:39 148 28.9
2014-Jul-28 01:49 148 29.4
2014-Jul-28 01:39 148 29.4
2014-Jul-28 00:59 148 30.0
2014-Jul-28 00:49 148 30.0
2014-Jul-28 00:39 148 30.0
2014-Jul-28 00:29 148 30.6
2014-Jul-28 00:09 148 31.1
2014-Jul-27 23:59 148 0 gusting 1 31.1
2014-Jul-27 23:49 148 31.1
2014-Jul-27 23:39 148 31.7
2014-Jul-27 23:29 163 31.7
2014-Jul-27 22:39 139 0 gusting 1 32.2
2014-Jul-27 22:29 129 0 gusting 3 31.7
2014-Jul-27 22:19 134 32.2
2014-Jul-27 21:59 136 3 gusting 3 32.2
2014-Jul-27 21:50 131 0 gusting 2 31.7
2014-Jul-27 21:39 122 1 gusting 2 32.2
2014-Jul-27 21:29 136 2 gusting 2 32.2
2014-Jul-27 21:14 130 2 gusting 6 32.2
2014-Jul-27 20:54 111 0 gusting 2 32.8
2014-Jul-27 20:44 132 2 gusting 2 32.8
2014-Jul-27 20:34 140 2 gusting 3 32.8
2014-Jul-27 20:14 161 1 gusting 4 32.2
2014-Jul-27 20:04 140 2 gusting 2 32.8
2014-Jul-27 19:54 146 2 gusting 4 32.8
2014-Jul-27 19:44 121 2 gusting 3 32.8
2014-Jul-27 19:34 089 32.8
2014-Jul-27 19:24 148 2 gusting 3 32.8
2014-Jul-27 19:04 123 1 gusting 2 32.8
2014-Jul-27 18:44 135 2 gusting 3 33.3
2014-Jul-27 18:24 137 2 gusting 2 32.8
2014-Jul-27 17:54 148 2 gusting 4 32.8
2014-Jul-27 17:44 122 1 gusting 2 32.2
2014-Jul-27 17:24 098 3 gusting 3 32.8
2014-Jul-27 17:04 133 0 gusting 1 32.2
2014-Jul-27 16:54 135 1 gusting 1 32.8
2014-Jul-27 16:44 157 0 gusting 3 32.2
2014-Jul-27 16:14 139 4 gusting 5 32.2
2014-Jul-27 15:54 136 2 gusting 5 32.2
2014-Jul-27 15:44 146 2 gusting 5 32.8
2014-Jul-27 15:34 135 4 gusting 4 32.8
2014-Jul-27 15:24 173 0 gusting 2 32.2
2014-Jul-27 15:14 168 2 gusting 4 32.2
2014-Jul-27 14:54 109 31.7
2014-Jul-27 14:44 130 2 gusting 3 31.7
2014-Jul-27 14:34 179 2 gusting 3 31.7
2014-Jul-27 14:14 200 31.1
2014-Jul-27 13:54 112 1 gusting 2 31.1
2014-Jul-27 13:44 139 2 gusting 2 31.1
2014-Jul-27 13:34 138 2 gusting 2 30.6
2014-Jul-27 13:24 115 0 gusting 2 30.0
2014-Jul-27 13:14 119 30.0
2014-Jul-27 13:04 126 0 gusting 0 30.0
2014-Jul-27 12:54 071 30.0
2014-Jul-27 12:24 115 1 gusting 1 28.9
2014-Jul-27 12:14 074 28.9
2014-Jul-27 11:54 074 28.3
2014-Jul-27 11:44 074 28.3
2014-Jul-27 11:34 074 28.3
2014-Jul-27 11:24 074 28.3
2014-Jul-27 11:14 074 28.3
2014-Jul-27 10:44 123 28.3
2014-Jul-27 09:44 120 28.9
2014-Jul-27 09:14 109 1 gusting 2 28.9
2014-Jul-27 08:44 117 28.9
2014-Jul-27 08:34 128 0 gusting 2 28.9
2014-Jul-27 08:14 128 2 gusting 3 28.9
2014-Jul-27 08:04 149 1 gusting 3 28.9
2014-Jul-27 07:54 114 1 gusting 4 28.9
2014-Jul-27 07:24 153 5 gusting 5 28.9
2014-Jul-27 07:14 135 4 gusting 6 28.9
2014-Jul-27 07:04 148 2 gusting 3 28.9
2014-Jul-27 06:54 133 2 gusting 6 28.9
2014-Jul-27 06:34 126 1 gusting 2 28.9
2014-Jul-27 06:14 108 0 gusting 2 28.9